Regional Weather Roundup
Issued by NWS

Home | Current Version | Previous Version | Graphics & Text | Print | Product List | Glossary On
Versions: 1 2 3 4 5 6 7 8 9 10 11 12 13 14 15 16 17 18 19 20 21 22 23 24 25 26 27 28 29 30 31 32 33 34 35 36 37 38 39 40 41 42 43 44 45 46 47 48 49 50
000
ASUS44 KMEG 211200
RWRTN
TENNESSEE HOURLY STATE WEATHER ROUNDUP
NATIONAL WEATHER SERVICE MEMPHIS TN
600 AM CST FRI NOV 21 2014

TNZ002-004-019-021-049-052-054-088>092-211300-
WEST TENNESSEE

CITY           SKY/WX    TMP DP  RH WIND       PRES   REMARKS
MEMPHIS INTL   LGT RAIN  44  34  67 E8        30.30S
NWS MEMPHIS      N/A     44 N/A N/A MISG        N/A
JACKSON        CLOUDY    44  26  49 E6        30.33S
DYERSBURG      CLOUDY    41  19  42 E10       30.35S
UNION CITY     CLOUDY    34  23  64 E9        30.36R WCI  26
PARIS          MOCLDY    30  21  69 E8        30.37R WCI  23
LEXINGTON      CLOUDY    39  25  56 E6        30.34R WCI  35
SAVANNAH       CLOUDY    43  25  49 CALM      30.35R
$$

TNZ008-025-027-028-033-062-065-066-211300-
NORTH MIDDLE TENNESSEE

CITY           SKY/WX    TMP DP  RH WIND       PRES   REMARKS
NASHVILLE      MOCLDY    33  23  66 E7        30.41S WCI  27
CLARKSVILLE    CLEAR     27  19  72 E6        30.42R WCI  20
COOKEVILLE     CLEAR     19  18  93 N5        30.39S WCI  13
CROSSVILLE     FAIR      27  18  69 NE5       30.37R WCI  22
$$

TNZ061-075-076-078-094-096-097-211300-
SOUTH MIDDLE TENNESSEE

CITY           SKY/WX    TMP DP  RH WIND       PRES   REMARKS
FAYETTEVILLE   CLEAR     34  21  60 MISG      30.36R
TULLAHOMA      CLEAR     34  19  55 NE6       30.36S WCI  29
WINCHESTER     CLEAR     32  25  74 CALM      30.37R
MCMINNVILLE    CLOUDY    28  27  93 CALM      30.39R
SHELBYVILLE    CLEAR     36  23  60 E6        30.39R WCI  31
$$

TNZ017-018-042-046-047-211300-
NORTHEAST TENNESSEE

CITY           SKY/WX    TMP DP  RH WIND       PRES   REMARKS
TRI CITIES     CLEAR     24  17  74 CALM      30.37R
ELIZABETHTON   SUNNY     21  18  86 W3        30.36R
$$

TNZ012-013-036-069-073-074-211300-
CENTRAL EAST TENNESSEE

CITY           SKY/WX    TMP DP  RH WIND       PRES   REMARKS
KNOXVILLE      PTCLDY    29  22  75 E3        30.40R
OAK RIDGE      CLEAR     29  23  78 CALM      30.42R
GATLINBURG     SUNNY     25  21  86 CALM      30.40R
$$

TNZ083-085-099-211300-
SOUTHEAST TENNESSEE

CITY           SKY/WX    TMP DP  RH WIND       PRES   REMARKS
CHATTANOOGA    PTCLDY    31  28  89 CALM      30.39R
$$

SKY/WX REPORTED AS FAIR MEANS FEW OR NO CLOUDS BELOW
12 THOUSAND FEET.




USA.gov is the U.S. government's official web portal to all federal, state and local government web resources and services.